[Iaude] MPEC M61: 2022 MN1 [a=1.95,e=0.52,i=2.3,H=27.0]

mpec at marsden.cfa.harvard.edu mpec at marsden.cfa.harvard.edu
Fri Jun 24 09:01:42 EDT 2022


M.P.E.C. 2022-M61                                 Issued 2022 June 24, 13:00 UT

     The Minor Planet Electronic Circulars contain information on unusual
         minor planets and routine data on comets.  They are published
    on behalf of Division F of the International Astronomical Union by the
          Minor Planet Center, Smithsonian Astrophysical Observatory,
                          Cambridge, MA 02138, U.S.A.

             Prepared using the Tamkin Foundation Computer Network

                              MPC at CFA.HARVARD.EDU
            URL https://www.minorplanetcenter.net/    ISSN 1523-6714

                                    2022 MN1                                    


Observations:
     K22M01N* C2022 06 21.30142115 53 44.081-09 51 07.50         21.57wUEM061F52
     K22M01N  C2022 06 21.31233815 53 42.589-09 50 49.61         21.85wUEM061F52
     K22M01N  C2022 06 21.32327115 53 41.103-09 50 31.24         22.01wUEM061F52
     K22M01N  C2022 06 21.40449415 53 29.764-09 48 08.91         21.84GVEM061F52
     K22M01N  C2022 06 21.40529815 53 29.658-09 48 07.46         21.40GVEM061F52
     K22M01N ^C2022 06 22.33188415 52 41.189-09 17 13.63         21.19GVEM061568
     K22M01N ^C2022 06 22.33483115 52 40.694-09 17 06.91         21.28GVEM061568
     K22M01N KC2022 06 22.91579515 52 10.472-08 49 17.46         19.5 GXEM061Y00
     K22M01N KC2022 06 22.92875215 52 08.372-08 48 43.83         19.2 GXEM061Y00
     K22M01N KC2022 06 22.94150715 52 06.163-08 48 09.51         18.3 GXEM061Y00
     K22M01N KC2022 06 23.11521315 51 46.03 -08 44 24.7          21.5 VuEM061H21
     K22M01N KC2022 06 23.11955815 51 45.25 -08 44 12.2          21.9 VuEM061H21
     K22M01N KC2022 06 24.16393215 49 55.76 -07 40 09.2          21.0 VuEM061H21
     K22M01N KC2022 06 24.16673015 49 55.06 -07 39 56.4          21.0 VuEM061H21
     K22M01N KC2022 06 24.16953315 49 54.37 -07 39 43.6          20.6 VuEM061H21

Observer details:
568 Mauna Kea.  Observers R. Wainscoat, L. Wells, T. Burdullis.  Measurers R.
    Weryk, R. Wainscoat.  3.6-m Canada-France-Hawaii Telescope + CCD.
F52 Pan-STARRS 2, Haleakala.  Observers J. Bulger, T. Lowe, A. Schultz, I.
    Smith, K. Chambers, T. Dukes.  Measurers K. Chambers, S. Chastel, T. de
    Boer, J. Fairlamb, H. Gao, M. Huber, C.-C. Lin, E. Magnier, Y.
    Ramanjooloo, R. Wainscoat, R. Weryk.  1.8-m Ritchey-Chretien + CCD.
H21 Astronomical Research Observatory, Westfield.  Observer R. Holmes.
    Measurers T. Linder, R. Holmes, L. Horn.  1.3-m f/4.0 astrograph + CCD,
    0.76-m f/3.0 astrograph + CCD.
Y00 SONEAR Observatory, Oliveira.  Observer C. Jacques.  0.45-m f/2.9 0.45-m
    f/2.9 reflector + CCD.

Orbital elements:
2022 MN1                                                 Earth MOID = 0.0022 AU
Epoch 2022 Aug. 9.0 TT = JDT 2459800.5                  Veres                   
M   4.45112              (2000.0)            P               Q                  
n   0.36066187     Peri.  213.92142     +0.68260790     +0.72967451             
a   1.9546510      Node    99.16231     -0.66110220     +0.64006382             
e   0.5155862      Incl.    2.33769     -0.31143271     +0.24061052             
P   2.73           H   27.07          G   0.15           U   8                  
Residuals in seconds of arc
220621 F52  0.1+  0.1+    220622 568  0.0   0.0     220623 H21  0.4+  0.1+
220621 F52  0.1-  0.0     220622 568  0.0   0.0     220623 H21  0.2+  0.1-
220621 F52  0.2+  0.1+    220622 Y00  0.0   0.6+    220624 H21  0.3+  0.1+
220621 F52  0.1+  0.1-    220622 Y00  0.0   0.2-    220624 H21  0.0   0.0
220621 F52  0.1+  0.1-    220622 Y00  0.9-  0.1-    220624 H21  0.2-  0.1-

Ephemeris:
2022 MN1                 a,e,i = 1.95, 0.52, 2                   q = 0.9469
Date    TT    R. A. (2000) Decl.     Delta      r    Elong.  Phase     V
2022 05 25    16 05 43.4 -13 41 18   0.2093  1.2207   172.8     5.9    24.6
...
2022 06 09    16 00 03.5 -12 18 41   0.1118  1.1212   160.8    17.3    23.5
...
2022 06 17    15 56 25.2 -11 09 27   0.06477 1.0737   152.4    26.0    22.5
...
2022 06 23    15 51 51.9 -08 46 29   0.03059 1.0415   144.9    34.2    21.0
2022 06 24    15 50 17.0 -07 47 55   0.02495 1.0365   143.2    36.0    20.6
2022 06 25    15 47 53.4 -06 16 04   0.01933 1.0316   141.0    38.3    20.1
...
2022 07 01    04 10 18.1 +20 21 37   0.01491 1.0044    34.5   145.1    25.5
...
2022 07 09    04 01 07.2 +13 57 17   0.06006 0.9758    45.8   131.6    26.8
...
2022 07 24    04 08 01.2 +13 22 52   0.1457  0.9480    58.5   113.9    27.2

M. P. C. Staff               (C) Copyright 2022 MPC           M.P.E.C. 2022-M61




More information about the Iaude mailing list